Regional Weather Roundup
Issued by NWS

Home | Current Version | Previous Version | Text Only | Print | Product List | Glossary On
Versions: 1 2 3 4 5 6 7 8 9 10 11 12 13 14 15 16 17 18 19 20 21 22 23 24 25 26 27 28 29 30 31 32 33 34 35 36 37 38 39 40 41 42 43 44 45 46 47 48 49 50
000
ASUS43 KMKX 271624
RWRWI

WISCONSIN REGIONAL WEATHER ROUNDUP
NATIONAL WEATHER SERVICE MILWAUKEE/SULLIVAN WI
1100 AM CDT WED MAY 27 2015

NOTE: "FAIR" INDICATES FEW OR NO CLOUDS BELOW 12,000 FEET WITH NO
SIGNIFICANT WEATHER AND/OR OBSTRUCTIONS TO VISIBILITY.

WIZ001-002-006>008-014>016-023>028-271700-
NORTHWEST WISCONSIN

CITY           SKY/WX    TMP DP  RH WIND       PRES   REMARKS
SUPERIOR ARPT  MOSUNNY   73  60  63 SW8       29.85R
ASHLAND        PTSUNNY   71  59  65 SW10      29.85R
HAYWARD        MOSUNNY   67  56  67 SW10      29.90S
SIREN          MOSUNNY   70  56  62 W13       29.90S
CUMBERLAND     MOSUNNY   66  54  63 SW14      29.92S
RICE LAKE      MOSUNNY   69  54  58 SW12G17   29.93S
CHETEK         MOSUNNY   68  57  67 SW7       29.92S
LADYSMITH      MOSUNNY   66  58  73 SW9       29.93S
EAU CLAIRE     MOSUNNY   68  56  65 SW14      29.93R
MENOMONIE      MOSUNNY   69  57  65 SW10      29.93S
NEW RICHMOND   SUNNY     69  57  66 SW12      29.93S
OSCEOLA        MOSUNNY   70  58  65 SW10      29.94S
$$

WIZ003>005-009-010-017-018-271700-
NORTH CENTRAL WISCONSIN

CITY           SKY/WX    TMP DP  RH WIND       PRES   REMARKS
MANITOWISH WTR MOSUNNY   65  58  77 W12       29.88R
ARBOR VITAE    MOSUNNY   64  58  80 W12       29.89R
WOODRUFF       MOSUNNY   64  58  80 W12       29.89R
RHINELANDER    PTSUNNY   62  57  83 W14G20    29.90R
EAGLE RIVER    PTSUNNY   63  56  80 W12       29.88R
LAND O LAKES   PTSUNNY   66  56  71 W9        29.87S
PHILLIPS       MOSUNNY   64  57  76 W7        29.90S
TOMAHAWK       CLOUDY    59  56  89 CALM      29.92R
MEDFORD        PTSUNNY   61  56  85 W9        29.93S
MERRILL        CLOUDY    57  56  97 W6        29.93S
$$

WIZ029-030-035-036-043>047-271700-
CENTRAL WISCONSIN

CITY           SKY/WX    TMP DP  RH WIND       PRES   REMARKS
WAUSAU         LGT RAIN  59  56  89 NW10      29.92R
MOSINEE        CLOUDY    59  59 100 W5          N/A
MARSHFIELD     CLOUDY    65  58  78 W10       29.94R
STEVENS POINT  LGT RAIN  59  56  92 W3        29.94S
WAUPACA        DRIZZLE   64  59  83 NW6       29.94R
WAUTOMA        PTSUNNY   64  57  78 NW8       29.95R
WISC RAPIDS    CLOUDY    64  57  78 W5        29.95S
CAMP DOUGLAS   PTSUNNY   68  55  64 VRB7      29.97R
$$

WIZ011>013-019>022-031-037>040-048>050-271700-
NORTHEAST WISCONSIN

CITY           SKY/WX    TMP DP  RH WIND       PRES   REMARKS
ANTIGO         CLOUDY    58  57  97 W8        29.92R
SHAWANO        LGT RAIN  62  58  88 W7        29.91R
OCONTO         CLOUDY    60  60 100 W6        29.89R
STURGEON BAY   CLOUDY    59  55  88 W8        29.92R
GREEN BAY      CLOUDY    61  57  87 NW9       29.91R FOG
MANITOWOC      LGT RAIN  61  57  88 NW13      29.91R FOG
APPLETON       LGT RAIN  57  57 100 NW14      29.94R FOG
CLINTONVILLE   LGT RAIN  61  55  82 W8        29.92R
OSHKOSH        LGT RAIN  60  56  86 N14G25    29.94R
$$

WIZ032>034-041-042-053>061-271700-
SOUTHWEST WISCONSIN

CITY           SKY/WX    TMP DP  RH WIND       PRES   REMARKS
LA CROSSE      SUNNY     70  55  59 CALM      29.96R
SPARTA         SUNNY     68  54  60 CALM      29.97R
VIROQUA        SUNNY     66  58  75 CALM      29.98R
BOSCOBEL       MOSUNNY   69  57  65 SW6       29.99R
PRAIRIE DU CHI SUNNY     69  56  62 W7        29.98S
PLATTEVILLE    PTSUNNY   67  60  79 W12       30.00R
$$

WIZ056-057-062-063-064-067-068-271700-
SOUTH CENTRAL WISCONSIN

CITY           SKY/WX    TMP DP  RH WIND       PRES   REMARKS
REEDSBURG      MOSUNNY   65  56  72 N7        29.97R
BARABOO/DELLS  PTSUNNY   65  55  71 N7        29.97R
LONE ROCK      PTSUNNY   68  56  65 NW9       29.98R
MINERAL POINT  CLOUDY    66  57  72 NW8       30.00R
MADISON        PTSUNNY   64  56  75 NW10      29.96R
MIDDLETON      CLOUDY    65  56  74 NW9       29.98R
WATERTOWN      CLOUDY   N/A N/A N/A W10G17    29.94R
MONROE         LGT RAIN  63  59  88 W15G21    29.98R
JANESVILLE     LGT RAIN  68  57  68 NW16G23   29.95R
$$

WIZ051-052-058>065-066-070>072-271700-
SOUTHEAST WISCONSIN

CITY           SKY/WX    TMP DP  RH WIND       PRES   REMARKS
MILWAUKEE      PTSUNNY   69  57  65 W12       29.91R
WAUKESHA       PTSUNNY   66  57  72 W10G22    29.93S
MILWAUKEE/TIMM CLOUDY    70  55  60 SW17      29.92R
RACINE         MOSUNNY   67  60  78 W10G16    29.94R
BURLINGTON     PTSUNNY   65  56  75 W14G20    29.94R
KENOSHA        PTSUNNY   66  62  87 W10       29.94R
FOND DU LAC    CLOUDY    63  55  75 NW16      29.93R
SHEBOYGAN      CLOUDY    65  57  75 W15       29.90R
WEST BEND      CLOUDY    63  57  82 W10       29.93R
JUNEAU         CLOUDY    63  56  79 W10       29.95R
$$

LSZ147-162-271700-
LAKE SUPERIOR

STATION/POSITION TIME  TEMP    WIND        PRES    WAVE
                       AIR SEA DIR/SP/G            HT/PER
                 (UTC) (F)     (DEG/KT/KT) (MB)    (FT/S)
W MID LAKE BUOY  1550   41 37  210/ 10/ 12   N/A     1/ 3
DEVILS ISLAND    1600   53     250/ 12/ 14   N/A
PORT WING        1540   65     280/  6/ 11   N/A
SAXON HARBOR     1540   69     210/  6/ 15   N/A
$$

LMZ867-665-643>646-271700-
LAKE MICHIGAN

STATION/POSITION TIME  TEMP    WIND        PRES    WAVE
                       AIR SEA DIR/SP/G            HT/PER
                 (UTC) (F)     (DEG/KT/KT) (MB)    (FT/S)
CHAMBERS ISLAND  1500   56     270/  1/  7   N/A
N MID LAKE BUOY  1550   44 37  220/ 10/ 10   N/A     3/ 6
NORTHPORT PIER   1400   56     280/  4/  9 1088.0R
SISTER BAY       1518   55     290/  7/  8   N/A
ALGOMA LAKESHORE 1508          310/  7/ 13   N/A
KEWAUNEE LAKESHO 1500   60     290/  9/ 14   N/A
SHEBOYGAN LAKESH 1600   64     270/ 12/ 15   N/A
PORT WASHINGTON  1500   68     260/  9/ 15   N/A
ATWATER BUOY     1600   62 47  240/  8/ 10   N/A
MILWAUKEE LAKESH 1600   67     270/ 10/ 16   N/A
S MID LAKE BUOY  1550   45 38  200/  8/  8   N/A     1/ 4
KENOSHA   LAKESH 1600   64     260/ 11/ 13   N/A
$$

TC  - TEMPERATURE IN CELSIUS
VSB - VISIBILITY IN STATUTE MILES
WCI - WIND CHILL INDEX
HX  - HEAT INDEX



USA.gov is the U.S. government's official web portal to all federal, state and local government web resources and services.